STARLINK-3271 (50167 NORAD) Tracking and Keplerian Element Data

This shows tracking and keplerian element data for the satellite.

Feedback or suggestion? Click here.




ElementValue
Catalog50167
NameSTARLINK-3271
Epoch Orbit130
Epoch Day140.58334491
Epoch Year2022
RAAN15.055
Inclination53.2178
Eccentricity0.000215
Argument of Perigee37.723
Mean Anonmoly73.7713
Mean Motion15.08841681
Decay Rate5.655E-05
L11 50167U 21125M 22140.58334491 .00005655 00000+0 37309-3 0 9991
L22 50167 53.2178 15.0550 0002150 37.7230 73.7713 15.08841681 1307

Live tracking and technical data element details for STARLINK-3271 (NORAD 50167). STARLINK-3271 can be tracked NOW for your location showing map with azimuth and elevation plus other details from your city location.

Track the satellite on the map from your city or location and see movement details for azimuth, elevation, latitude, longitude, range, height, and movement on the map or in text.







IsCatalogInMostPopularTable: catalog: 50167, numindb: 20
Update: records affected: 1



GetName: 50167 STARLINK-3271

Hit Count: updated at: Sun, 22 May 2022 03:53:20 GMT